sat.trackr.live / text

‹ back to catalog

STARLINK-5796

NORAD 55916 · 2023-037C

PAYLOAD ACTIVE UNKNOWN

§ Identity

Operator
Country
US
Launch date
2023-03-17
Launch site
AFWTR
Launch vehicle
Mass (kg)
RCS (m²)

Purposes: comms

External: N2YO · Heavens-Above · Gunter

§ Orbital elements

Epoch: 2026-05-25T04:39:11.860992Z

Period
96.11 min
Inclination
69.9993°
Eccentricity
0.0004086
Mean motion
14.98328881 rev/d
Perigee alt
569.2 km
Apogee alt
574.9 km
Semi-major
6,950.2 km
B*
-1.2632e-4
RAAN
111.6908°
Arg perigee
262.8092°
Mean anomaly
97.2603°
Rev number
17,494

§ Raw data

STARLINK-57961 55916U 23037C   26145.19388728 -.00001600  00000+0 -12632-3 0  99902 55916  69.9993 111.6908 0004086 262.8092  97.2603 14.98328881174940

JSON: /api/v1/satellites/55916 · /tle

For live sub-satellite position, see the globe view (requires WebGL).

§ Visibility from observer

Set your observer location to see the next 7 days of passes ≥ 10°. The values pass through the URL so the page stays shareable.

No JS? Fill the form by hand. The geolocation button needs JavaScript.